Location: Fort Wayne
(41.1310°N, 85.1290°W)
Time: 14:08:41
(UTC-04:00)

Helios 1B - Visible Passes

Search period start: 01 September 2015 00:00
Search period end: 11 September 2015 00:00
Orbit: 624 x 625 km, 98.1° (Epoch: 01 September)

Date Brightness Start Highest point End Pass type
(mag) Time Alt. Az. Time Alt. Az. Time Alt. Az.
01 Sep 7.7 00:52:30 12° NNW 00:52:30 12° NNW 00:52:50 10° NNW visible
02 Sep 7.5 23:52:56 10° NNE 23:52:56 10° NNE 23:53:00 10° NNE visible
04 Sep 7.6 00:11:47 11° N 00:11:47 11° N 00:11:58 10° N visible
05 Sep 7.7 00:30:38 11° N 00:30:38 11° N 00:30:44 10° N visible
